Terug naar catalogus

STARLINK-5132

ActiefCommunicatieVLEO
NORAD 54007·PAYLOAD·🇺🇸 United States

Gelanceerd Oct 5, 2022 vanaf Vandenberg Space Force Base

Loading…

Volgende Passages (komende 24 uur)

TLE

VersSource: CelesTrak SupGP

Epoch: Sep 14, 2026, 20:54 UTC

1 54007C 22125AV  26257.87131944  .00011323  00000+0  71016-3 0  2571
2 54007  53.1574  83.8685 0001410  88.8975  52.9820 15.08823924    11

Volg STARLINK-5132 in realtime met AllMySat

Download on the App Store